Lady Fell — TSNU — position and weather

sailwx.info

Track history (hours):
 
Tides and Currents Weather Stations Pressure Air Temp Water Temp Dewpoint Dewpoint Depression Visibility Wind Speed Wind Dir Waves Ship Positions

Lady Fell

Last reported at 2014-Nov-23 09:14 UTC. Time now 2014-Nov-24 08:14 UTC.
Position N 37°39' E 007°33'.

Length 166 m; draft 8.9 m.

Type: Tanker. MMSI: 672564000.

Date/timePositionNaut miles runAvg speedWind from/ knotsBaromVisibWave heightAir tempDewpointWater temp
2014-Nov-23 09:14N 37°39' E 007°33'810.7
2014-Nov-23 08:26N 37°41' E 007°43'1110.8
2014-Nov-23 07:25N 37°42' E 007°57'910.7
2014-Nov-23 06:33N 37°43' E 008°09'1111.0
2014-Nov-23 05:33N 37°45' E 008°22'2510.9
2014-Nov-23 03:16N 37°49' E 008°53'810.7
2014-Nov-23 02:33N 37°50' E 009°03'1010.3
2014-Nov-23 01:33N 37°50' E 009°16'1010.2
2014-Nov-23 00:33N 37°50' E 009°29'1210.1
2014-Nov-22 23:24N 37°50' E 009°44'1311.9
2014-Nov-22 22:20N 37°50' E 009°60'6 8.1
2014-Nov-22 21:32N 37°50' E 010°08'1010.3
2014-Nov-22 20:33N 37°49' E 010°21'1110.4
2014-Nov-22 19:29N 37°44' E 010°33'119 9.0
2014-Nov-22 06:19N 35°59' E 011°41'86 8.7
2014-Nov-21 20:20N 34°32' E 011°44'2010.6
2014-Nov-21 18:27N 34°25' E 011°22'2010.2
2014-Nov-21 16:31N 34°18' E 010°60'11 0.5
2014-Nov-20 16:25N 34°14' E 010°47'  
2014-Nov-16 02:07N 33°47' E 013°45'9 3.3
2014-Nov-15 23:17N 33°40' E 013°51'  
Track history (hours):
 
Tides and Currents Weather Stations Pressure Air Temp Water Temp Dewpoint Dewpoint Depression Visibility Wind Speed Wind Dir Waves Ship Positions

Lady Fell

Last reported at 2014-Nov-23 09:14 UTC. Time now 2014-Nov-24 08:14 UTC.
Position N 37°39' E 007°33'.

Length 166 m; draft 8.9 m.

Type: Tanker. MMSI: 672564000.

Date/timePositionNaut miles runAvg speedWind from/ knotsBaromVisibWave heightAir tempDewpointWater temp
2014-Nov-23 09:14N 37°39' E 007°33'810.7
2014-Nov-23 08:26N 37°41' E 007°43'1110.8
2014-Nov-23 07:25N 37°42' E 007°57'910.7
2014-Nov-23 06:33N 37°43' E 008°09'1111.0
2014-Nov-23 05:33N 37°45' E 008°22'2510.9
2014-Nov-23 03:16N 37°49' E 008°53'810.7
2014-Nov-23 02:33N 37°50' E 009°03'1010.3
2014-Nov-23 01:33N 37°50' E 009°16'1010.2
2014-Nov-23 00:33N 37°50' E 009°29'1210.1
2014-Nov-22 23:24N 37°50' E 009°44'1311.9
2014-Nov-22 22:20N 37°50' E 009°60'6 8.1
2014-Nov-22 21:32N 37°50' E 010°08'1010.3
2014-Nov-22 20:33N 37°49' E 010°21'1110.4
2014-Nov-22 19:29N 37°44' E 010°33'119 9.0
2014-Nov-22 06:19N 35°59' E 011°41'86 8.7
2014-Nov-21 20:20N 34°32' E 011°44'2010.6
2014-Nov-21 18:27N 34°25' E 011°22'2010.2
2014-Nov-21 16:31N 34°18' E 010°60'11 0.5
2014-Nov-20 16:25N 34°14' E 010°47'  
2014-Nov-16 02:07N 33°47' E 013°45'9 3.3
2014-Nov-15 23:17N 33°40' E 013°51'  

Dump ship's entire track history